When you browse on this site, cookies collect data to enhance your experience and personalize the content and advertising you see.
Visit our Privacy Policy to learn more. By continuing to use the site, you agree to this use of cookies and data.
  • en France
  • Liste des pays
  • À 7 jours
  • Température de l'eau
  • Carte météo
  • Widgets météo
  • user-avatar
    Se connecter

    Météo par heure à Whitney

    Ce jour, 5 Juin, Vendredi

    Heure Température Précipitation Vent Pression Humidité
    00:00 +34°C° 0 mm 2 m/s 704 mmHg 13%
    01:00 +32°C° 0 mm 2 m/s 704 mmHg 15%
    02:00 +31°C° 0 mm 2 m/s 704 mmHg 16%
    03:00 +30°C° 0 mm 1 m/s 704 mmHg 17%
    04:00 +29°C° 0 mm 1 m/s 704 mmHg 18%
    05:00 +31°C° 0 mm 2 m/s 704 mmHg 16%
    06:00 +34°C° 0 mm 2 m/s 704 mmHg 15%
    07:00 +35°C° 0 mm 3 m/s 704 mmHg 13%
    08:00 +37°C° 0 mm 5 m/s 705 mmHg 11%
    09:00 +39°C° 0 mm 7 m/s 705 mmHg 9%
    10:00 +40°C° 0 mm 10 m/s 705 mmHg 7%
    11:00 +42°C° 0 mm 10 m/s 704 mmHg 7%
    12:00 +43°C° 0 mm 10 m/s 704 mmHg 6%
    13:00 +43°C° 0 mm 10 m/s 703 mmHg 6%
    14:00 +43°C° 0 mm 11 m/s 703 mmHg 6%
    15:00 +43°C° 0 mm 11 m/s 702 mmHg 6%
    16:00 +43°C° 0 mm 12 m/s 702 mmHg 7%
    17:00 +39°C° 0 mm 10 m/s 702 mmHg 11%
    18:00 +37°C° 0 mm 9 m/s 702 mmHg 14%
    19:00 +34°C° 0 mm 7 m/s 701 mmHg 18%
    20:00 +33°C° 0 mm 6 m/s 702 mmHg 21%
    21:00 +30°C° 0 mm 5 m/s 702 mmHg 24%
    22:00 +29°C° 0 mm 3 m/s 702 mmHg 26%
    23:00 +28°C° 0 mm 3 m/s 702 mmHg 28%

    Demain, 6 Juin, Samedi

    Heure Température Précipitation Vent Pression Humidité
    00:00 +27°C° 0 mm 3 m/s 702 mmHg 30%
    01:00 +26°C° 0 mm 3 m/s 702 mmHg 31%
    02:00 +25°C° 0 mm 4 m/s 702 mmHg 35%
    03:00 +23°C° 0 mm 4 m/s 702 mmHg 38%
    04:00 +22°C° 0 mm 5 m/s 702 mmHg 42%
    05:00 +23°C° 0 mm 5 m/s 703 mmHg 41%
    06:00 +23°C° 0 mm 6 m/s 704 mmHg 41%
    07:00 +24°C° 0 mm 6 m/s 704 mmHg 40%
    08:00 +26°C° 0 mm 7 m/s 704 mmHg 36%
    09:00 +28°C° 0 mm 8 m/s 705 mmHg 32%
    10:00 +31°C° 0 mm 9 m/s 705 mmHg 28%
    11:00 +32°C° 0 mm 10 m/s 704 mmHg 26%
    12:00 +33°C° 0 mm 11 m/s 704 mmHg 23%
    13:00 +34°C° 0 mm 12 m/s 703 mmHg 20%
    14:00 +34°C° 0 mm 12 m/s 703 mmHg 19%
    15:00 +34°C° 0 mm 13 m/s 703 mmHg 18%
    16:00 +34°C° 0 mm 13 m/s 702 mmHg 16%
    17:00 +32°C° 0 mm 12 m/s 702 mmHg 17%
    18:00 +29°C° 0 mm 11 m/s 702 mmHg 17%
    19:00 +28°C° 0 mm 10 m/s 702 mmHg 17%
    20:00 +26°C° 0 mm 9 m/s 702 mmHg 20%
    21:00 +24°C° 0 mm 8 m/s 702 mmHg 23%
    22:00 +23°C° 0 mm 7 m/s 702 mmHg 26%
    23:00 +22°C° 0 mm 6 m/s 702 mmHg 27%

    Après-demain, 7 Juin, Dimanche

    Heure Température Précipitation Vent Pression Humidité
    00:00 +21°C° 0 mm 5 m/s 702 mmHg 28%
    01:00 +20°C° 0 mm 4 m/s 702 mmHg 29%
    02:00 +20°C° 0 mm 3 m/s 702 mmHg 30%
    03:00 +19°C° 0 mm 3 m/s 702 mmHg 31%
    04:00 +18°C° 0 mm 3 m/s 702 mmHg 32%
    05:00 +19°C° 0 mm 3 m/s 702 mmHg 30%
    06:00 +20°C° 0 mm 3 m/s 703 mmHg 28%
    07:00 +21°C° 0 mm 3 m/s 703 mmHg 26%
    08:00 +24°C° 0 mm 3 m/s 703 mmHg 23%
    09:00 +25°C° 0 mm 3 m/s 704 mmHg 20%
    10:00 +27°C° 0 mm 4 m/s 704 mmHg 18%
    11:00 +28°C° 0 mm 5 m/s 704 mmHg 16%
    12:00 +30°C° 0 mm 6 m/s 703 mmHg 14%
    13:00 +32°C° 0 mm 7 m/s 703 mmHg 12%
    14:00 +33°C° 0 mm 8 m/s 703 mmHg 10%
    15:00 +33°C° 0 mm 8 m/s 702 mmHg 9%
    16:00 +33°C° 0 mm 8 m/s 702 mmHg 7%
    17:00 +32°C° 0 mm 8 m/s 702 mmHg 8%
    18:00 +29°C° 0 mm 7 m/s 702 mmHg 9%
    19:00 +27°C° 0 mm 6 m/s 702 mmHg 10%
    20:00 +24°C° 0 mm 6 m/s 703 mmHg 11%
    21:00 +23°C° 0 mm 5 m/s 704 mmHg 12%
    22:00 +21°C° 0 mm 5 m/s 705 mmHg 13%
    23:00 +21°C° 0 mm 5 m/s 706 mmHg 14%

    8 Juin, Lundi

    Heure Température Précipitation Vent Pression Humidité
    00:00 +20°C° 0 mm 5 m/s 706 mmHg 15%
    01:00 +19°C° 0 mm 6 m/s 707 mmHg 16%
    02:00 +19°C° 0 mm 6 m/s 707 mmHg 17%
    03:00 +17°C° 0 mm 6 m/s 708 mmHg 17%
    04:00 +17°C° 0 mm 6 m/s 708 mmHg 17%
    05:00 +17°C° 0 mm 6 m/s 709 mmHg 16%
    06:00 +18°C° 0 mm 7 m/s 710 mmHg 15%
    07:00 +20°C° 0 mm 7 m/s 711 mmHg 14%
    08:00 +21°C° 0 mm 7 m/s 711 mmHg 12%
    09:00 +23°C° 0 mm 7 m/s 711 mmHg 10%
    10:00 +24°C° 0 mm 7 m/s 711 mmHg 8%
    11:00 +26°C° 0 mm 6 m/s 711 mmHg 7%
    12:00 +27°C° 0 mm 6 m/s 711 mmHg 6%
    13:00 +28°C° 0 mm 5 m/s 711 mmHg 5%
    14:00 +29°C° 0 mm 5 m/s 711 mmHg 5%
    15:00 +29°C° 0 mm 4 m/s 710 mmHg 5%
    16:00 +30°C° 0 mm 4 m/s 710 mmHg 4%
    17:00 +28°C° 0 mm 3 m/s 710 mmHg 5%
    18:00 +27°C° 0 mm 3 m/s 710 mmHg 6%
    19:00 +25°C° 0 mm 2 m/s 710 mmHg 6%
    20:00 +24°C° 0 mm 2 m/s 710 mmHg 7%
    21:00 +23°C° 0 mm 1 m/s 710 mmHg 8%
    22:00 +22°C° 0 mm 1 m/s 710 mmHg 9%
    23:00 +21°C° 0 mm 1 m/s 710 mmHg 9%

    9 Juin, Mardi

    Heure Température Précipitation Vent Pression Humidité
    00:00 +21°C° 0 mm 1 m/s 710 mmHg 9%
    01:00 +21°C° 0 mm 1 m/s 710 mmHg 9%
    02:00 +20°C° 0 mm 1 m/s 710 mmHg 10%
    03:00 +20°C° 0 mm 1 m/s 710 mmHg 10%
    04:00 +20°C° 0 mm 1 m/s 710 mmHg 10%
    05:00 +21°C° 0 mm 2 m/s 711 mmHg 9%
    06:00 +24°C° 0 mm 2 m/s 711 mmHg 8%
    07:00 +26°C° 0 mm 2 m/s 712 mmHg 7%
    08:00 +27°C° 0 mm 2 m/s 712 mmHg 7%
    09:00 +29°C° 0 mm 3 m/s 712 mmHg 6%
    10:00 +30°C° 0 mm 3 m/s 712 mmHg 5%
    11:00 +31°C° 0 mm 3 m/s 711 mmHg 5%
    12:00 +32°C° 0 mm 2 m/s 711 mmHg 5%
    13:00 +34°C° 0 mm 2 m/s 711 mmHg 5%
    14:00 +35°C° 0 mm 2 m/s 710 mmHg 4%
    15:00 +35°C° 0 mm 2 m/s 710 mmHg 4%
    16:00 +36°C° 0 mm 2 m/s 710 mmHg 4%
    17:00 +33°C° 0 mm 1 m/s 709 mmHg 5%
    18:00 +31°C° 0 mm 1 m/s 709 mmHg 6%
    19:00 +29°C° 0 mm 1 m/s 709 mmHg 7%
    20:00 +28°C° 0 mm 1 m/s 709 mmHg 7%
    21:00 +27°C° 0 mm 1 m/s 709 mmHg 8%
    22:00 +24°C° 0 mm 0 m/s 710 mmHg 8%
    23:00 +24°C° 0 mm 0 m/s 709 mmHg 8%

    10 Juin, Mercredi

    Heure Température Précipitation Vent Pression Humidité
    00:00 +23°C° 0 mm 0 m/s 709 mmHg 8%
    01:00 +22°C° 0 mm 0 m/s 709 mmHg 9%
    02:00 +22°C° 0 mm 0 m/s 709 mmHg 9%
    03:00 +21°C° 0 mm 0 m/s 709 mmHg 9%
    04:00 +21°C° 0 mm 0 m/s 709 mmHg 9%
    05:00 +25°C° 0 mm 1 m/s 710 mmHg 8%
    06:00 +28°C° 0 mm 1 m/s 710 mmHg 7%
    07:00 +31°C° 0 mm 1 m/s 711 mmHg 5%
    08:00 +32°C° 0 mm 1 m/s 711 mmHg 5%
    09:00 +34°C° 0 mm 1 m/s 711 mmHg 4%
    10:00 +35°C° 0 mm 1 m/s 711 mmHg 4%
    11:00 +37°C° 0 mm 2 m/s 711 mmHg 4%
    12:00 +38°C° 0 mm 2 m/s 711 mmHg 3%
    13:00 +40°C° 0 mm 2 m/s 710 mmHg 3%
    14:00 +40°C° 0 mm 3 m/s 710 mmHg 3%
    15:00 +42°C° 0 mm 3 m/s 710 mmHg 3%
    16:00 +42°C° 0 mm 3 m/s 709 mmHg 3%
    17:00 +39°C° 0 mm 3 m/s 709 mmHg 4%
    18:00 +37°C° 0 mm 3 m/s 709 mmHg 4%
    19:00 +35°C° 0 mm 4 m/s 709 mmHg 5%
    20:00 +34°C° 0 mm 3 m/s 709 mmHg 6%
    21:00 +33°C° 0 mm 3 m/s 709 mmHg 6%
    22:00 +30°C° 0 mm 2 m/s 709 mmHg 7%
    23:00 +29°C° 0 mm 2 m/s 709 mmHg 7%
    Voir plus